Location: Puerto Pe�asco
(31.3170°N, 113.5330°W)
Time: 22:46:52
(UTC-07:00)

Daily predictions for brighter satellites

Satellite Brightness Start Highest point End
(mag) Time Altitude Azimuth Time Altitude Azimuth Time Altitude Azimuth
Cosmos 1655 Rocket 4.0 20:01:24 10° S 20:07:32 67° E 20:13:41 10° NNE
Cosmos 2322 Rocket 3.2 20:03:33 10° N 20:08:29 31° ENE 20:13:24 10° SE
Cosmos 1743 Rocket 4.2 20:04:59 10° SSE 20:09:06 37° E 20:13:12 10° NNE
Cosmos 2228 Rocket 4.0 20:07:26 10° NNE 20:11:26 31° E 20:15:27 10° SE
Cosmos 405 Rocket 3.5 20:08:13 10° SSW 20:11:50 54° W 20:15:29 10° N
Cosmos 968 Rocket 3.5 20:11:00 10° S 20:16:07 69° ESE 20:21:18 10° NNE
Resurs 01 Rocket 3.7 20:12:55 10° SSW 20:16:41 27° W 20:20:27 10° NW
Cosmos 2221 2.7 20:12:40 10° N 20:16:57 76° W 20:21:13 10° S
Cosmos 1980 Rocket 2.4 20:12:30 10° NNW 20:18:11 76° WSW 20:23:50 10° SSE
Cosmos 2360 Rocket 4.2 20:15:47 10° NNE 20:18:16 13° ENE 20:20:45 10° E
ATLAS CENTAUR R/B 1.8 20:14:11 10° NNW 20:18:31 49° ENE 20:22:27 10° SE
SL-16 R/B 3.0 20:13:26 10° N 20:18:36 35° ENE 20:23:46 10° SE
CZ-4 DEB 3.0 20:17:49 10° SSE 20:20:56 52° ENE 20:24:04 10° N
USA 186 0.9 20:19:39 10° SSE 20:21:59 84° ENE 20:24:23 10° N
FENGYUN 3A 3.7 20:17:42 10° SSE 20:23:06 85° ENE 20:28:33 10° N
Cosmos 1697 Rocket 4.1 20:19:15 10° NW 20:24:24 37° WSW 20:29:30 10° S
Cosmos 1939 Rocket 4.2 20:23:26 11° SE 20:26:27 23° ENE 20:29:35 10° NNE
Cosmos 371 Rocket 3.8 20:22:02 10° N 20:26:36 43° ENE 20:30:54 11° SE
ALOS 2.4 20:23:05 10° S 20:27:44 78° WSW 20:32:25 10° NNW
deb Chang Zheng 4 3.9 20:24:05 10° NNE 20:28:14 44° E 20:32:23 10° S
Cosmos 1766 Rocket 4.3 20:24:25 10° SSW 20:28:45 57° W 20:33:07 10° N
Delta 2 Rocket 3.0 20:26:40 10° WSW 20:30:23 79° NNW 20:33:48 10° ENE
Cosmos 1674 4.0 20:28:20 12° SE 20:31:02 23° E 20:34:05 10° NE
GPS 2-04 Rocket1 2.9 20:29:24 10° WNW 20:33:49 89° NE 20:37:28 14° ESE
Tiangong 1 2.0 20:34:10 10° SSW 20:36:50 26° SE 20:39:15 12° E
SPOT 5 4.2 20:34:33 13° ESE 20:37:18 22° ENE 20:40:50 10° NNE
Envisat 3.9 20:33:42 13° SE 20:37:33 32° ENE 20:42:01 10° N
Cosmos 1437 4.4 20:41:55 17° ESE 20:42:28 18° E 20:44:45 10° NE
H-2A R/B 3.7 20:40:16 10° S 20:44:00 48° W 20:47:43 10° NNW
ERS-1 Rocket 3.0 20:39:08 10° SSE 20:44:04 67° ENE 20:49:03 10° N
Cosmos 1833 4.2 20:38:48 10° S 20:44:25 61° ESE 20:50:01 10° NNE
Cosmos 1437 Rocket 3.6 20:43:16 10° NNE 20:46:41 31° E 20:48:31 20° SE
Cosmos 1515 Rocket 3.8 20:44:18 10° N 20:48:36 49° E 20:51:39 18° SSE
H-2A R/B 3.1 20:47:36 10° SSW 20:50:20 31° SE 20:58:38 10° E
AVUM R/B 2.2 20:49:12 10° SSW 20:51:22 83° WNW 20:53:43 10° NNE
Cosmos 1777 Rocket 4.0 20:48:23 10° SSW 20:53:39 87° WNW 20:58:56 10° NNE
SJ-11-01 4.3 20:52:29 13° SSE 20:56:44 89° ENE 21:01:29 10° NNW
Cosmos 2151 3.6 20:55:05 21° SE 20:57:13 36° E 21:01:04 10° NNE
YAOGAN 6 4.3 20:57:57 17° E 20:58:35 18° ENE 21:01:03 10° NNE
Cosmos 405 4.0 20:57:43 10° NNE 21:00:59 31° E 21:01:51 27° ESE
Nimbus 7 Rocket 4.3 20:55:48 10° NNE 21:01:41 81° ESE 21:07:33 10° SSW
Meteor 1-21 Rocket 4.4 20:56:20 10° SSW 21:01:52 73° W 21:07:24 10° N
CZ-2C R/B 1.0 21:02:44 39° NW 21:02:44 39° NW 21:03:58 10° NNW
Cosmos 2266 Rocket 4.0 20:57:16 10° S 21:03:34 69° E 21:09:46 10° NNE
Cosmos 1328 4.4 21:03:43 28° SE 21:04:54 35° E 21:08:31 10° NNE
Meteor 2-20 Rocket 4.4 20:59:17 10° S 21:05:22 67° E 21:11:28 10° NNE
NOSS 3-1 (C) 3.5 21:05:26 10° S 21:10:52 47° ESE 21:16:43 10° NE
Cosmos 1553 Rocket 4.2 21:04:57 10° N 21:11:18 72° W 21:17:32 10° S
Cosmos 1805 Rocket 4.4 21:10:40 28° ESE 21:11:33 31° E 21:15:28 10° NNE
H-2A R/B 4.2 21:10:13 10° E 21:11:41 12° ENE 21:13:28 10° NE
Cosmos 1151 Rocket 3.2 21:09:42 10° N 21:13:56 54° E 21:15:32 34° SE
MetOp-A 4.4 21:15:14 28° SE 21:17:46 51° ENE 21:22:56 10° N
ARGOS 4.2 21:18:34 25° ESE 21:20:19 30° ENE 21:24:57 10° N
Cosmos 2058 3.2 21:22:14 40° ESE 21:22:45 42° E 21:26:38 10° NNE
SPOT 1/Viking Rocket 4.2 21:21:45 30° ESE 21:23:23 38° ENE 21:28:07 10° N
Delta 128 4.4 21:20:32 10° W 21:24:40 33° SSW 21:25:21 31° S
H-2A R/B 2.8 21:25:15 20° S 21:28:11 52° W 21:32:37 10° NNW
Cosmos 1680 Rocket 3.9 21:23:17 10° N 21:28:21 48° ENE 21:29:56 36° ESE
CZ-4 SHROUD 3.0 21:30:10 83° SSE 21:30:16 88° E 21:33:25 10° N
SL-14 R/B 4.2 21:32:24 32° ENE 21:32:24 32° ENE 21:35:23 10° NNE
Cosmos 923 Rocket 3.9 21:26:55 10° NNW 21:32:07 72° ENE 21:33:56 40° SSE
Cosmos 1666 Rocket 4.0 21:33:43 40° E 21:33:44 40° E 21:37:51 10° NNE
Cosmos 2219 3.1 21:28:50 10° SSW 21:34:35 87° ESE 21:40:22 10° NNE
Terra 3.7 21:34:39 15° ENE 21:34:53 15° ENE 21:37:35 10° NNE
Cosmos 1707 Rocket 4.4 21:31:19 10° NNE 21:35:13 32° E 21:35:13 32° E
CZ-4B R/B 3.4 21:30:33 10° NNE 21:35:50 79° ESE 21:38:40 28° S
Cosmos 1898 Rocket 3.8 21:36:30 42° ESE 21:37:02 43° ESE 21:41:56 10° NNE
Cosmos 1726 3.9 21:35:16 10° NNE 21:37:27 21° ENE 21:37:27 21° ENE
Cosmos 2150 Rocket 4.3 21:37:35 42° SE 21:38:38 47° ESE 21:43:51 10° NNE
Nadezhda 2 Rocket 4.4 21:39:12 21° S 21:43:34 84° W 21:49:43 10° N
Cosmos 2322 3.6 21:42:49 10° NNW 21:48:34 80° ENE 21:50:11 48° SSE
OAO 2 Rocket 3.3 21:43:31 10° WSW 21:48:49 72° SSE 21:50:41 40° E
Cosmos 2237 Rocket 4.4 21:47:30 10° NE 21:49:10 11° NE 21:50:31 10° ENE
Cosmos 773 Rocket 4.5 21:45:57 10° NNW 21:51:02 55° WSW 21:53:00 34° SSW
Cosmos 2322 Rocket 3.8 21:47:41 10° NW 21:52:20 27° WSW 21:55:49 15° SSW
CZ-4 R/B 3.7 21:49:38 10° NNE 21:54:34 86° E 21:55:45 53° S
ATLAS CENTAUR R/B 4.1 21:56:19 10° W 21:56:57 10° WSW 21:57:34 10° WSW
NOAA 11 4.1 21:58:27 56° SE 21:59:26 70° ENE 22:04:52 10° N
SL-16 R/B 4.0 21:57:59 10° NW 22:02:26 24° W 22:05:39 15° SW
Cosmos 2360 Rocket 2.2 21:57:10 10° NNW 22:02:48 73° WSW 22:04:09 52° S
Meteor 1-11 4.4 22:07:22 36° SSW 22:09:47 70° W 22:15:31 10° N
Meteor 1-4 Rocket 4.4 22:06:36 10° N 22:08:33 25° NNE 22:08:33 25° NNE
Tiangong 1 3.7 22:10:34 10° W 22:11:30 17° W 22:11:30 17° W
NOSS 3-1 (A) 3.5 22:08:26 13° SW 22:13:40 72° WNW 22:19:56 10° NNE
USA 32 4.1 22:09:31 10° N 22:14:34 60° ENE 22:14:34 60° ENE
SPOT 5 4.3 22:13:47 23° SW 22:15:10 27° W 22:19:05 10° NW
Cosmos 2242 Rocket 4.2 22:13:02 10° N 22:16:36 49° NE 22:16:36 49° NE
SL-08 RB Rocket 3.7 22:18:54 74° NW 22:18:54 74° NW 22:23:04 10° NNW
DELTA 2 DEB (DPAF) 4.4 22:20:39 65° NNE 22:20:39 65° NNE 22:24:33 10° N
Cosmos 1300 3.7 22:18:13 10° NNW 22:21:07 44° NW 22:21:07 44° NW
Cosmos 2227 Rocket 2.7 22:24:14 46° ENE 22:24:14 46° ENE 22:28:37 10° NNE
CARTOSAT-1 4.5 22:31:26 44° NNE 22:31:26 44° NNE 22:34:31 10° N
FALCON 9 R/B 3.9 22:04:06 10° W 22:31:30 76° N 22:36:25 23° ENE
Sich 1 4.1 22:33:56 39° W 22:34:02 39° W 22:38:11 10° N
Cosmos 1633 Rocket 4.1 22:35:11 41° WNW 22:35:11 41° WNW 22:39:15 10° N
ATLAS 2AS CENTAUR R/B 2.8 22:35:30 62° SE 22:35:49 62° ESE 22:43:35 10° NE
Cosmos 2333 Rocket 3.2 22:32:10 10° N 22:37:11 35° ENE 22:37:11 35° ENE
DELTA 2 R/B (1) 3.6 22:32:34 10° WNW 22:37:53 76° N 22:37:53 76° N
Cosmos 1937 Rocket 3.8 22:38:37 61° W 22:38:53 62° WNW 22:44:04 10° N
SL-16 R/B 4.3 22:38:28 10° NNE 22:41:14 14° ENE 22:41:37 14° ENE
Cosmos 1455 4.5 22:41:13 10° N 22:42:36 20° NNE 22:42:36 20° NNE
COSMOS 2428 2.9 22:43:27 10° NNW 22:48:48 61° W 22:48:48 61° W
H-2A R/B 2.3 22:50:52 67° WNW 22:50:52 67° WNW 22:55:45 10° NNW
Cosmos 2297 Rocket 2.9 22:52:11 44° NE 22:52:11 44° NE 22:56:07 10° NNE
Cosmos 990 Rocket 4.4 22:53:39 58° NNW 22:53:39 58° NNW 22:58:03 10° N
ATLAS 3B R/B 4.2 22:56:22 10° N 23:01:46 24° NE 23:03:19 22° ENE
Cosmos 2219 Rocket 2.5 22:59:31 10° NNW 23:04:09 62° N 23:04:09 62° N
Terra 3.2 23:13:32 34° WNW 23:13:32 34° WNW 23:16:44 10° NNW
Cosmos 1980 4.2 23:15:04 10° NNW 23:19:26 55° N 23:19:26 55° N
Nadezhda 1 Rocket 4.5 23:16:21 10° NNW 23:21:53 51° W 23:21:53 51° W
COSMOS 2455 4.0 23:24:02 10° N 23:28:56 35° NE 23:28:56 35° NE
SeaSat 1 3.8 23:35:08 35° N 23:35:08 35° N 23:38:13 10° NNW
Cosmos 2237 Rocket 2.9 23:28:09 10° NNW 23:32:20 51° NNW 23:32:20 51° NNW
Cosmos 1709 Rocket 4.4 23:37:05 55° NW 23:37:05 55° NW 23:42:22 10° N
